When you browse on this site, cookies collect data to enhance your experience and personalize the content and advertising you see.
Visit our Privacy Policy to learn more. By continuing to use the site, you agree to this use of cookies and data.
  • In United Kingdom
  • List of Countries
  • For 7 days
  • Water Temperature
  • Satellite Maps
  • Weather Map
  • Weather Widgets
  • user-avatar
    Login

    Hourly Weather Tamazulapan del Progreso

    Today, 23 March, Saturday

    Time Temperature Precipitation Wind Pressure Humidity
    00:00 +15°C° 0 mm 1 mps 599 mmHg 82%
    01:00 +15°C° 0 mm 1 mps 599 mmHg 84%
    02:00 +13°C° 0 mm 0 mps 599 mmHg 86%
    03:00 +13°C° 0 mm 0 mps 599 mmHg 86%
    04:00 +13°C° 0 mm 0 mps 599 mmHg 86%
    05:00 +12°C° 0 mm 0 mps 599 mmHg 86%
    06:00 +15°C° 0 mm 1 mps 599 mmHg 78%
    07:00 +18°C° 0 mm 1 mps 600 mmHg 69%
    08:00 +19°C° 0 mm 1 mps 601 mmHg 61%
    09:00 +21°C° 0 mm 1 mps 602 mmHg 52%
    10:00 +21°C° 0 mm 2 mps 602 mmHg 44%
    11:00 +24°C° 0 mm 2 mps 602 mmHg 36%
    12:00 +24°C° 0 mm 2 mps 602 mmHg 32%
    13:00 +25°C° 0 mm 3 mps 602 mmHg 28%
    14:00 +26°C° 0 mm 3 mps 601 mmHg 24%
    15:00 +25°C° 0 mm 3 mps 601 mmHg 26%
    16:00 +25°C° 0 mm 3 mps 601 mmHg 28%
    17:00 +24°C° 0 mm 2 mps 600 mmHg 29%
    18:00 +23°C° 0 mm 2 mps 601 mmHg 38%
    19:00 +20°C° 0 mm 2 mps 601 mmHg 46%
    20:00 +19°C° 0 mm 1 mps 601 mmHg 55%
    21:00 +19°C° 0 mm 1 mps 601 mmHg 60%
    22:00 +17°C° 0 mm 2 mps 601 mmHg 66%
    23:00 +16°C° 0 mm 2 mps 601 mmHg 72%

    Tomorrow, 24 March, Sunday

    Time Temperature Precipitation Wind Pressure Humidity
    00:00 +16°C° 0 mm 1 mps 600 mmHg 74%
    01:00 +15°C° 0 mm 1 mps 599 mmHg 77%
    02:00 +15°C° 0 mm 1 mps 599 mmHg 79%
    03:00 +14°C° 0 mm 1 mps 599 mmHg 78%
    04:00 +14°C° 0 mm 1 mps 599 mmHg 77%
    05:00 +14°C° 0 mm 1 mps 599 mmHg 75%
    06:00 +16°C° 0 mm 1 mps 600 mmHg 66%
    07:00 +18°C° 0 mm 1 mps 601 mmHg 56%
    08:00 +20°C° 0 mm 1 mps 602 mmHg 47%
    09:00 +21°C° 0 mm 2 mps 602 mmHg 42%
    10:00 +24°C° 0 mm 2 mps 603 mmHg 37%
    11:00 +25°C° 0 mm 2 mps 603 mmHg 33%
    12:00 +26°C° 0 mm 3 mps 603 mmHg 31%
    13:00 +26°C° 0 mm 3 mps 602 mmHg 29%
    14:00 +27°C° 0 mm 3 mps 602 mmHg 28%
    15:00 +26°C° 0 mm 3 mps 601 mmHg 32%
    16:00 +25°C° 0 mm 3 mps 601 mmHg 36%
    17:00 +24°C° 0 mm 3 mps 600 mmHg 40%
    18:00 +21°C° 0 mm 3 mps 600 mmHg 48%
    19:00 +19°C° 0 mm 3 mps 600 mmHg 56%
    20:00 +18°C° 0 mm 2 mps 600 mmHg 63%
    21:00 +17°C° 0 mm 2 mps 600 mmHg 67%
    22:00 +16°C° 0 mm 2 mps 600 mmHg 72%
    23:00 +15°C° 0 mm 2 mps 600 mmHg 76%

    Day after tomorrow, 25 March, Monday

    Time Temperature Precipitation Wind Pressure Humidity
    00:00 +15°C° 0 mm 2 mps 599 mmHg 74%
    01:00 +15°C° 0 mm 2 mps 598 mmHg 73%
    02:00 +14°C° 0 mm 2 mps 598 mmHg 72%
    03:00 +14°C° 0 mm 2 mps 598 mmHg 70%
    04:00 +14°C° 0 mm 1 mps 598 mmHg 68%
    05:00 +14°C° 0 mm 1 mps 598 mmHg 66%
    06:00 +16°C° 0 mm 1 mps 599 mmHg 58%
    07:00 +19°C° 0 mm 1 mps 600 mmHg 50%
    08:00 +21°C° 0 mm 1 mps 601 mmHg 43%
    09:00 +21°C° 0 mm 2 mps 602 mmHg 37%
    10:00 +24°C° 0 mm 2 mps 602 mmHg 31%
    11:00 +26°C° 0 mm 3 mps 603 mmHg 26%
    12:00 +26°C° 0 mm 3 mps 602 mmHg 22%
    13:00 +27°C° 0 mm 4 mps 601 mmHg 19%
    14:00 +28°C° 0 mm 5 mps 601 mmHg 15%
    15:00 +26°C° 0 mm 5 mps 600 mmHg 19%
    16:00 +24°C° 0 mm 6 mps 600 mmHg 22%
    17:00 +23°C° 0 mm 6 mps 599 mmHg 26%
    18:00 +21°C° 0 mm 5 mps 599 mmHg 33%
    19:00 +18°C° 0 mm 4 mps 599 mmHg 40%
    20:00 +16°C° 0 mm 3 mps 599 mmHg 47%
    21:00 +14°C° 0 mm 3 mps 599 mmHg 50%
    22:00 +14°C° 0 mm 3 mps 599 mmHg 52%
    23:00 +13°C° 0 mm 3 mps 599 mmHg 55%

    26 March, Tuesday

    Time Temperature Precipitation Wind Pressure Humidity
    00:00 +12°C° 0 mm 3 mps 598 mmHg 57%
    01:00 +13°C° 0 mm 2 mps 598 mmHg 59%
    02:00 +12°C° 0 mm 2 mps 597 mmHg 61%
    03:00 +12°C° 0 mm 2 mps 597 mmHg 64%
    04:00 +10°C° 0 mm 2 mps 597 mmHg 68%
    05:00 +10°C° 0 mm 2 mps 597 mmHg 72%
    06:00 +12°C° 0 mm 3 mps 598 mmHg 62%
    07:00 +14°C° 0 mm 3 mps 599 mmHg 52%
    08:00 +17°C° 0 mm 3 mps 601 mmHg 42%
    09:00 +19°C° 0 mm 4 mps 601 mmHg 35%
    10:00 +21°C° 0 mm 4 mps 602 mmHg 27%
    11:00 +23°C° 0 mm 5 mps 602 mmHg 19%
    12:00 +23°C° 0 mm 6 mps 602 mmHg 19%
    13:00 +24°C° 0 mm 6 mps 601 mmHg 19%
    14:00 +24°C° 0 mm 7 mps 601 mmHg 19%
    15:00 +23°C° 0 mm 7 mps 600 mmHg 21%
    16:00 +21°C° 0 mm 7 mps 600 mmHg 24%
    17:00 +20°C° 0 mm 7 mps 600 mmHg 27%
    18:00 +17°C° 0 mm 6 mps 600 mmHg 36%
    19:00 +15°C° 0 mm 5 mps 599 mmHg 44%
    20:00 +13°C° 0 mm 4 mps 599 mmHg 53%
    21:00 +12°C° 0 mm 4 mps 599 mmHg 62%
    22:00 +12°C° 0 mm 4 mps 599 mmHg 70%
    23:00 +11°C° 0 mm 3 mps 599 mmHg 79%

    27 March, Wednesday

    Time Temperature Precipitation Wind Pressure Humidity
    00:00 +11°C° 0 mm 3 mps 598 mmHg 81%
    01:00 +11°C° 0 mm 3 mps 598 mmHg 83%
    02:00 +10°C° 0 mm 3 mps 597 mmHg 84%
    03:00 +10°C° 0 mm 3 mps 597 mmHg 85%
    04:00 +10°C° 0 mm 3 mps 598 mmHg 86%
    05:00 +9°C° 0 mm 3 mps 598 mmHg 86%
    06:00 +11°C° 0 mm 3 mps 599 mmHg 73%
    07:00 +13°C° 0 mm 3 mps 600 mmHg 59%
    08:00 +16°C° 0 mm 3 mps 601 mmHg 46%
    09:00 +18°C° 0 mm 3 mps 601 mmHg 38%
    10:00 +20°C° 0 mm 4 mps 602 mmHg 30%
    11:00 +23°C° 0 mm 4 mps 602 mmHg 22%
    12:00 +23°C° 0 mm 4 mps 602 mmHg 22%
    13:00 +25°C° 0 mm 4 mps 601 mmHg 21%
    14:00 +26°C° 0 mm 4 mps 601 mmHg 21%
    15:00 +25°C° 0 mm 4 mps 601 mmHg 25%
    16:00 +23°C° 0 mm 5 mps 600 mmHg 30%
    17:00 +21°C° 0 mm 5 mps 600 mmHg 34%
    18:00 +19°C° 0 mm 4 mps 600 mmHg 41%
    19:00 +17°C° 0 mm 4 mps 600 mmHg 48%
    20:00 +14°C° 0 mm 3 mps 600 mmHg 55%
    21:00 +14°C° 0 mm 3 mps 599 mmHg 59%
    22:00 +13°C° 0 mm 3 mps 599 mmHg 62%
    23:00 +13°C° 0 mm 2 mps 599 mmHg 65%

    28 March, Thursday

    Time Temperature Precipitation Wind Pressure Humidity
    00:00 +13°C° 0 mm 2 mps 598 mmHg 66%
    01:00 +12°C° 0 mm 2 mps 598 mmHg 66%
    02:00 +12°C° 0 mm 2 mps 597 mmHg 67%
    03:00 +10°C° 0 mm 2 mps 597 mmHg 66%
    04:00 +10°C° 0 mm 2 mps 598 mmHg 65%
    05:00 +10°C° 0 mm 2 mps 598 mmHg 65%
    06:00 +14°C° 0 mm 1 mps 599 mmHg 55%
    07:00 +16°C° 0 mm 1 mps 600 mmHg 44%
    08:00 +19°C° 0 mm 1 mps 602 mmHg 34%
    09:00 +21°C° 0 mm 1 mps 602 mmHg 29%
    10:00 +23°C° 0 mm 1 mps 602 mmHg 23%
    11:00 +25°C° 0 mm 1 mps 602 mmHg 17%
    12:00 +26°C° 0 mm 1 mps 602 mmHg 16%
    13:00 +27°C° 0 mm 2 mps 602 mmHg 15%
    14:00 +28°C° 0 mm 2 mps 601 mmHg 14%
    15:00 +27°C° 0 mm 2 mps 601 mmHg 17%
    16:00 +26°C° 0 mm 3 mps 601 mmHg 20%
    17:00 +25°C° 0 mm 3 mps 600 mmHg 23%
    18:00 +22°C° 0 mm 3 mps 600 mmHg 31%
    19:00 +20°C° 0 mm 2 mps 600 mmHg 40%
    20:00 +18°C° 0 mm 2 mps 600 mmHg 48%
    21:00 +17°C° 0 mm 2 mps 599 mmHg 53%
    22:00 +16°C° 0 mm 2 mps 599 mmHg 58%
    23:00 +16°C° 0 mm 2 mps 599 mmHg 63%
    Show more